VE1DX Weather Reports


Display with metric or nautical units.
time (UTC)temp
F
wind
direction
speed
MPH
gust
MPH
rain 1hr
in
rain 24hr
in
rain mn
in
humidity
%
barometer
mb
20260505121517 55 135 2.0 8.0 0.00 0.00 0.00 71 1013.2
20260505121016 54 225 2.0 5.0 0.00 0.00 0.00 71 1013.2
20260505120516 54 225 2.0 8.0 0.00 0.00 0.00 71 1013.2
20260505120016 54 225 2.0 7.0 0.00 0.00 0.00 72 1013.3
20260505115517 54 135 1.0 6.0 0.00 0.00 0.00 72 1013.1
20260505115017 53 113 2.0 5.0 0.00 0.00 0.00 73 1013.1
20260505114516 53 113 1.0 3.0 0.00 0.00 0.00 74 1013.0
20260505114017 52 225 1.0 6.0 0.00 0.00 0.00 75 1013.0
20260505113517 52 203 1.0 4.0 0.00 0.00 0.00 76 1013.0
20260505113016 51 225 1.0 4.0 0.00 0.00 0.00 78 1013.0
20260505112516 50 203 2.0 8.0 0.00 0.00 0.00 78 1013.1
20260505112016 49 225 1.0 4.0 0.00 0.00 0.00 79 1013.0
20260505111516 49 225 1.0 4.0 0.00 0.00 0.00 80 1013.0
20260505111016 48 113 1.0 5.0 0.00 0.00 0.00 81 1012.9
20260505110516 48 203 1.0 6.0 0.00 0.00 0.00 81 1012.9
20260505102017 45 0.0 2.0 0.00 0.00 0.00 84 1012.5
20260505101516 45 0.0 2.0 0.00 0.00 0.00 85 1012.5
20260505101016 45 0.0 1.0 0.00 0.00 0.00 85 1012.4
20260505100516 44 0.0 4.0 0.00 0.00 0.00 85 1012.4
20260505100016 44 135 1.0 3.0 0.00 0.00 0.00 85 1012.3
20260505095516 44 0.0 4.0 0.00 0.00 0.00 85 1012.3
20260505095016 44 135 1.0 3.0 0.00 0.00 0.00 85 1012.2
20260505094516 44 135 1.0 3.0 0.00 0.00 0.00 84 1012.3
20260505094016 44 225 1.0 3.0 0.00 0.00 0.00 84 1012.2
20260505093516 44 135 1.0 6.0 0.00 0.00 0.00 84 1012.1
20260505093016 44 0.0 2.0 0.00 0.00 0.00 84 1012.3
20260505092516 44 225 1.0 4.0 0.00 0.00 0.00 84 1012.2
20260505092016 44 158 1.0 6.0 0.00 0.00 0.00 84 1012.3
20260505091516 45 113 1.0 4.0 0.00 0.00 0.00 84 1012.1
20260505091016 45 225 2.0 9.0 0.00 0.00 0.00 84 1012.1
20260505090516 45 203 1.0 5.0 0.00 0.00 0.00 84 1012.0
20260505090016 45 203 1.0 3.0 0.00 0.00 0.00 83 1012.2
20260505085517 45 0.0 2.0 0.00 0.00 0.00 83 1012.4
20260505085016 45 225 2.0 7.0 0.00 0.00 0.00 83 1012.1
20260505084516 45 0.0 5.0 0.00 0.00 0.00 84 1012.1
20260505084016 45 135 1.0 4.0 0.00 0.00 0.00 84 1012.0
20260505083516 45 113 1.0 3.0 0.00 0.00 0.00 84 1011.6
20260505083017 45 0.0 1.0 0.00 0.00 0.00 84 1011.8
20260505082517 45 0.0 3.0 0.00 0.00 0.00 84 1011.9
20260505082016 45 0.0 2.0 0.00 0.00 0.00 84 1011.9
20260505081516 45 0.0 2.0 0.00 0.00 0.00 83 1011.8
20260505081016 45 0.0 2.0 0.00 0.00 0.00 83 1011.7
20260505080516 45 0.0 4.0 0.00 0.00 0.00 83 1011.6
20260505080016 45 0.0 2.0 0.00 0.00 0.00 83 1011.6
20260505075516 45 0.0 1.0 0.00 0.00 0.00 83 1011.7
20260505075016 45 0.0 1.0 0.00 0.00 0.00 82 1011.8
20260505074517 46 0.0 2.0 0.00 0.00 0.00 82 1011.8
20260505074016 46 0.0 1.0 0.00 0.00 0.00 81 1011.8
20260505073516 46 0.0 2.0 0.00 0.00 0.00 81 1011.5
20260505073016 46 0.0 1.0 0.00 0.00 0.00 81 1011.2
20260505072516 46 135 1.0 2.0 0.00 0.00 0.00 80 1011.2
20260505072017 47 0.0 1.0 0.00 0.00 0.00 80 1011.3
20260505071516 47 135 1.0 4.0 0.00 0.00 0.00 80 1011.2
20260505071016 47 0.0 2.0 0.00 0.00 0.00 80 1011.4
20260505070516 47 0.0 2.0 0.00 0.00 0.00 80 1011.4
20260505070016 47 135 1.0 7.0 0.00 0.00 0.00 79 1011.3
20260505065516 47 0.0 0.0 0.00 0.00 0.00 79 1011.3
20260505065016 47 0.0 1.0 0.00 0.00 0.00 79 1011.1
20260505064516 47 0.0 4.0 0.00 0.00 0.00 79 1010.9
20260505064016 47 0.0 1.0 0.00 0.00 0.00 79 1010.9
20260505063516 47 113 1.0 2.0 0.00 0.00 0.00 79 1010.8
20260505063016 47 225 1.0 2.0 0.00 0.00 0.00 79 1010.9
20260505062516 47 0.0 3.0 0.00 0.00 0.00 79 1010.8
20260505062016 47 225 1.0 4.0 0.00 0.01 0.00 79 1010.9
20260505061516 47 180 1.0 5.0 0.00 0.01 0.00 80 1010.9
20260505061016 47 203 1.0 5.0 0.00 0.01 0.00 80 1011.0
20260505060516 46 203 1.0 5.0 0.00 0.01 0.00 79 1011.1
20260505060016 46 0.0 0.0 0.00 0.01 0.00 79 1010.8
20260505055516 47 0.0 0.0 0.00 0.01 0.00 78 1010.6
20260505055016 47 0.0 4.0 0.00 0.02 0.00 78 1010.7
20260505054516 47 0.0 3.0 0.00 0.02 0.00 78 1010.6
20260505054016 47 225 1.0 3.0 0.00 0.02 0.00 78 1010.6
20260505053517 47 0.0 5.0 0.00 0.02 0.00 78 1010.5
20260505053016 47 0.0 2.0 0.00 0.02 0.00 78 1010.4
20260505052516 47 0.0 3.0 0.00 0.03 0.00 78 1010.4
20260505052016 47 0.0 1.0 0.00 0.03 0.00 78 1010.4
20260505051516 47 0.0 1.0 0.00 0.03 0.00 77 1010.4
20260505051016 48 225 1.0 4.0 0.00 0.03 0.00 77 1010.4
20260505050516 48 225 1.0 3.0 0.00 0.04 0.00 77 1010.3
20260505041516 49 225 2.0 9.0 0.00 0.07 0.00 74 1009.8
20260505041016 49 225 2.0 7.0 0.00 0.07 0.00 74 1009.7
20260505040516 49 225 1.0 5.0 0.00 0.07 0.00 74 1009.6
20260505040016 49 225 1.0 6.0 0.00 0.08 0.00 74 1009.5
20260505035516 50 225 2.0 7.0 0.00 0.08 0.00 73 1009.5
20260505035016 50 270 2.0 11.0 0.00 0.09 0.00 73 1009.5
20260505034516 50 203 1.0 6.0 0.00 0.09 0.00 73 1009.5
20260505034016 50 248 2.0 7.0 0.00 0.09 0.00 73 1009.4
20260505033516 50 315 2.0 8.0 0.00 0.09 0.00 73 1009.3
20260505033016 49 270 2.0 7.0 0.00 0.09 0.00 74 1009.2
20260505032517 49 293 2.0 6.0 0.00 0.10 0.00 75 1009.2
20260505032016 49 225 1.0 6.0 0.00 0.10 0.00 76 1009.1
20260505031516 48 203 2.0 5.0 0.00 0.10 0.00 76 1009.0
20260505031016 48 225 2.0 8.0 0.00 0.10 0.00 78 1008.9
20260505030516 47 248 1.0 10.0 0.00 0.10 0.00 80 1008.7
20260505030016 46 225 2.0 6.0 0.00 0.11 0.00 82 1008.7
20260505025517 45 0.0 6.0 0.00 0.11 0.11 85 1008.7
20260505025017 44 0.0 1.0 0.00 0.11 0.11 86 1008.6
20260505024517 44 0.0 0.0 0.00 0.12 0.11 86 1008.6
20260505024016 44 0.0 0.0 0.00 0.12 0.11 85 1008.6
20260505023517 44 0.0 0.0 0.00 0.12 0.11 85 1008.6
20260505023017 44 0.0 0.0 0.00 0.12 0.11 84 1008.5
20260505022517 44 0.0 1.0 0.00 0.12 0.11 83 1008.4
20260505022016 45 0.0 0.0 0.00 0.12 0.11 82 1008.3
20260505021516 45 0.0 0.0 0.00 0.12 0.11 82 1008.3
20260505021017 45 0.0 2.0 0.00 0.12 0.11 81 1008.2
20260505020517 45 0.0 1.0 0.00 0.12 0.11 81 1008.1
20260505020017 45 0.0 1.0 0.00 0.12 0.11 81 1008.0
20260505015517 45 0.0 1.0 0.00 0.13 0.11 81 1008.0
20260505015017 45 0.0 1.0 0.00 0.13 0.11 81 1007.8
20260505014517 45 0.0 1.0 0.00 0.13 0.11 81 1007.8
20260505014017 45 0.0 2.0 0.00 0.13 0.11 80 1007.6
20260505013517 45 0.0 3.0 0.00 0.13 0.11 80 1007.7
20260505013017 45 0.0 1.0 0.00 0.13 0.11 80 1007.6
20260505012517 45 0.0 2.0 0.00 0.13 0.11 80 1007.7
20260505012017 46 0.0 2.0 0.00 0.13 0.11 79 1007.6
20260505011517 46 0.0 1.0 0.00 0.13 0.11 79 1007.5
20260505011016 46 0.0 1.0 0.00 0.13 0.11 79 1007.6
20260505010517 46 0.0 1.0 0.00 0.13 0.11 78 1007.6
20260505010016 46 0.0 2.0 0.00 0.13 0.11 78 1007.5
20260505005517 46 0.0 2.0 0.00 0.13 0.11 78 1007.4
20260505005017 46 0.0 1.0 0.00 0.13 0.11 78 1007.4
20260505004516 46 0.0 2.0 0.00 0.13 0.11 77 1007.3
20260505004017 47 0.0 1.0 0.00 0.13 0.11 77 1007.2
20260505003517 47 0.0 1.0 0.00 0.13 0.11 77 1007.2
20260505003017 47 0.0 2.0 0.00 0.13 0.11 77 1007.1
20260505002516 47 158 1.0 3.0 0.00 0.13 0.11 77 1007.1
20260505002017 47 0.0 3.0 0.00 0.13 0.11 76 1007.1
20260505001517 47 0.0 2.0 0.00 0.13 0.11 76 1007.0
20260505001016 48 0.0 2.0 0.00 0.13 0.11 75 1006.9
20260505000517 48 0.0 2.0 0.00 0.13 0.11 75 1006.8
20260505000017 48 0.0 1.0 0.00 0.13 0.11 74 1006.7
20260504235517 48 0.0 0.0 0.00 0.13 0.11 74 1006.7
20260504235017 49 0.0 3.0 0.00 0.13 0.11 74 1006.6
20260504234516 49 0.0 3.0 0.00 0.13 0.11 73 1006.5
20260504234016 49 225 1.0 3.0 0.00 0.13 0.11 73 1006.6
20260504233517 49 225 1.0 4.0 0.00 0.13 0.11 73 1006.5
20260504233016 49 203 2.0 6.0 0.00 0.13 0.11 73 1006.6
20260504232517 49 225 1.0 5.0 0.00 0.13 0.11 73 1006.5
20260504232017 49 113 2.0 6.0 0.00 0.13 0.11 72 1006.4
20260504231517 50 203 2.0 6.0 0.00 0.13 0.11 72 1006.3
20260504231017 50 203 2.0 8.0 0.00 0.13 0.11 71 1006.2
20260504230516 50 113 2.0 8.0 0.00 0.13 0.11 71 1006.1
20260504230017 51 135 1.0 3.0 0.00 0.13 0.11 70 1006.1
20260504225517 51 135 1.0 4.0 0.00 0.13 0.11 69 1005.9
20260504225017 52 135 1.0 4.0 0.00 0.14 0.11 69 1005.8
20260504224516 52 225 2.0 9.0 0.00 0.14 0.11 67 1005.9
20260504224017 52 135 1.0 7.0 0.00 0.14 0.11 67 1005.8
20260504223517 52 158 2.0 5.0 0.00 0.14 0.11 67 1005.8
20260504223017 52 248 1.0 6.0 0.00 0.14 0.11 67 1005.8
20260504222517 52 225 2.0 6.0 0.00 0.15 0.11 67 1005.9
20260504222017 52 315 1.0 3.0 0.00 0.15 0.11 67 1005.9
20260504221517 52 225 1.0 7.0 0.00 0.16 0.11 67 1005.9
20260504221017 52 203 3.0 11.0 0.00 0.17 0.11 68 1005.9
20260504220517 52 158 1.0 5.0 0.00 0.17 0.11 68 1005.8
20260504220016 52 225 1.0 6.0 0.00 0.17 0.11 68 1005.8
20260504215517 52 225 2.0 8.0 0.00 0.18 0.11 67 1005.7
20260504215016 52 225 2.0 7.0 0.00 0.18 0.11 66 1005.6
20260504214517 53 158 2.0 10.0 0.00 0.18 0.11 65 1005.5
20260504214017 53 135 1.0 5.0 0.00 0.18 0.11 64 1005.3
20260504213516 53 135 2.0 9.0 0.00 0.19 0.11 63 1005.5
20260504213017 53 225 3.0 12.0 0.00 0.19 0.11 62 1005.4
20260504212516 53 203 3.0 8.0 0.00 0.19 0.11 61 1005.3
20260504212017 54 203 3.0 10.0 0.00 0.19 0.11 60 1005.2
20260504211516 54 180 4.0 11.0 0.00 0.19 0.11 59 1005.0
20260504211016 54 225 4.0 11.0 0.00 0.19 0.11 58 1005.0
20260504210517 55 158 3.0 8.0 0.00 0.19 0.11 58 1005.0
20260504210016 55 225 4.0 12.0 0.00 0.20 0.11 56 1005.0
20260504205517 55 225 4.0 14.0 0.00 0.20 0.11 55 1004.9
20260504205016 56 203 5.0 16.0 0.00 0.20 0.11 54 1004.9
20260504204517 56 158 3.0 11.0 0.00 0.20 0.11 53 1004.8
20260504204016 57 135 3.0 11.0 0.00 0.21 0.11 51 1004.8
20260504203516 58 158 4.0 11.0 0.00 0.22 0.11 50 1004.7
20260504203017 59 135 4.0 10.0 0.00 0.24 0.11 47 1004.6
20260504202516 60 113 5.0 15.0 0.00 0.24 0.11 46 1004.5
20260504202016 62 135 4.0 10.0 0.00 0.25 0.11 43 1004.3
20260504201516 63 225 3.0 11.0 0.00 0.27 0.11 39 1004.3
20260504201017 62 293 6.0 16.0 0.00 0.27 0.11 32 1004.1
20260504200517 62 315 5.0 14.0 0.00 0.28 0.11 32 1004.2
20260504200016 63 225 4.0 14.0 0.00 0.28 0.11 33 1004.3
20260504195516 62 225 5.0 13.0 0.00 0.28 0.11 32 1004.1
20260504195017 62 225 6.0 15.0 0.00 0.28 0.11 31 1004.0
20260504194517 62 270 4.0 17.0 0.00 0.28 0.11 32 1003.9
20260504194016 62 293 6.0 18.0 0.00 0.29 0.11 32 1003.8
20260504193517 62 315 5.0 12.0 0.00 0.29 0.11 32 1003.8
20260504193017 62 293 4.0 13.0 0.00 0.30 0.11 33 1003.7
20260504192516 62 293 5.0 17.0 0.00 0.30 0.11 32 1003.6
20260504192017 62 293 5.0 16.0 0.00 0.31 0.11 33 1003.6
20260504191517 62 225 7.0 18.0 0.00 0.31 0.11 33 1003.7
20260504191017 62 293 5.0 16.0 0.00 0.31 0.11 33 1003.5
20260504190517 62 293 6.0 14.0 0.00 0.32 0.11 32 1003.6
20260504190016 62 248 5.0 14.0 0.00 0.32 0.11 32 1003.5
20260504185516 61 270 6.0 26.0 0.00 0.33 0.11 31 1003.6
20260504185017 61 248 7.0 26.0 0.00 0.34 0.11 32 1003.6
20260504184516 61 293 7.0 18.0 0.00 0.35 0.11 32 1003.5
20260504184017 61 315 5.0 13.0 0.00 0.36 0.11 32 1003.6
20260504183517 60 293 8.0 15.0 0.00 0.38 0.11 32 1003.8
20260504183016 60 315 7.0 16.0 0.00 0.39 0.11 31 1003.8
20260504182516 60 315 6.0 15.0 0.00 0.41 0.11 33 1003.7
20260504182016 60 315 4.0 12.0 0.00 0.43 0.11 33 1003.8
20260504181517 60 293 8.0 19.0 0.00 0.45 0.11 32 1003.8
20260504181016 60 270 9.0 21.0 0.00 0.47 0.11 32 1003.7
20260504180516 60 293 5.0 13.0 0.00 0.48 0.11 34 1003.7
20260504180017 59 293 6.0 14.0 0.00 0.50 0.11 33 1003.8
20260504175516 59 293 9.0 15.0 0.00 0.50 0.11 33 1004.0
20260504175017 58 315 8.0 23.0 0.00 0.50 0.11 33 1003.9
20260504174516 58 315 11.0 20.0 0.00 0.52 0.11 31 1004.1
20260504174016 58 315 8.0 18.0 0.00 0.53 0.11 33 1004.2
20260504173517 58 315 7.0 23.0 0.00 0.54 0.11 32 1004.1
20260504173016 58 315 8.0 21.0 0.00 0.55 0.11 34 1004.0
20260504172517 58 293 7.0 18.0 0.00 0.56 0.11 33 1004.0
20260504172017 58 293 6.0 15.0 0.00 0.57 0.11 34 1003.8
20260504171517 58 315 7.0 20.0 0.00 0.58 0.11 33 1004.0
20260504171017 57 315 9.0 18.0 0.00 0.61 0.11 33 1003.9
20260504170516 58 315 7.0 19.0 0.00 0.61 0.11 34 1003.8
20260504151016 53 315 7.0 17.0 0.00 0.67 0.11 54 1003.5
20260504150516 53 293 7.0 16.0 0.00 0.68 0.11 54 1003.4
20260504141016 51 315 7.0 17.0 0.00 0.69 0.11 62 1003.1
20260504140516 51 293 7.0 19.0 0.00 0.69 0.11 62 1002.9
20260504130517 46 293 6.0 16.0 0.00 0.69 0.11 76 1002.0